Home > Weather > Kreuztal > Past weeks

Flag for Germany Past Weather in Kreuztal, North Rhine-Westphalia, Germany — Yesterday and Last 2 Weeks

Now
64 °F

Sunny.


Feels Like: 64 °F
Forecast: 50 / 68 °F
Wind: 6 mph from West

Location: Hessen

Current Time: Jul 30, 2016 at 9:02:23 PM

Latest Report: Jul 30, 2016 at 8:20 PM


Visibility: 10 mi

Pressure: 29.95 "Hg

Humidity: 73%

Dew Point: 55 °F

Location of KreuztalLocation

Past Weather in Kreuztal — Graph

°F

Kreuztal Temperature Yesterday

Maximum temperature yesterday: 66 °F (at 2:50 PM)
Minimum temperature yesterday: 57 °F (at 7:50 AM)
Average temperature yesterday: 62 °F

High & Low Weather Summary for the Past Weeks

 TemperatureHumidityPressure
High84 °F (Jul 20, 2:50 PM)100% (Jul 23, 7:50 AM)30.30 "Hg (Jul 23, 7:50 AM)
Low55 °F (Jul 16, 7:50 AM)40% (Jul 20, 3:50 PM)29.95 "Hg (Jul 29, 2:20 PM)
Average68 °F74%30.11 "Hg
* Reported Jul 15 7:20 PM — Jul 30 7:50 PM, Kreuztal, Weather by CustomWeather, © 2016

Note: Actual official high and low records may vary slightly from our data, if they occured in-between our weather recording intervals... More about our weather records

Advertising

Kreuztal Weather History for the Previous 24 Hours

Scroll right to see more
 ConditionsComfort  
Time TempWeatherWind HumidityBarometerVisibility
7:50 PM
Sat, Jul 30
66 °FPassing clouds.6 mph68%29.95 "HgN/A
7:20 PM66 °FPassing clouds.7 mph68%29.95 "HgN/A
6:50 PM68 °FPassing clouds.7 mph64%29.95 "HgN/A
6:20 PM66 °FScattered clouds.9 mph68%29.98 "HgN/A
5:50 PM66 °FPartly sunny.7 mph68%29.98 "HgN/A
5:20 PM68 °FPartly sunny.9 mph60%29.98 "HgN/A
4:50 PM68 °FPartly sunny.9 mph60%29.98 "HgN/A
4:20 PM66 °FBroken clouds.9 mph64%29.98 "HgN/A
3:50 PM66 °FBroken clouds.8 mph68%29.98 "HgN/A
3:20 PM66 °FBroken clouds.8 mph68%29.98 "HgN/A
2:50 PM64 °FBroken clouds.9 mph68%29.98 "HgN/A
2:20 PM66 °FBroken clouds.10 mph64%29.98 "HgN/A
1:50 PM64 °FScattered clouds.12 mph68%29.98 "HgN/A
1:20 PM64 °FScattered clouds.10 mph78%29.98 "HgN/A
12:50 PM64 °FBroken clouds.15 mph68%29.95 "HgN/A
12:20 PM64 °FBroken clouds.13 mph73%29.95 "HgN/A
11:50 AM63 °FBroken clouds.12 mph77%29.95 "HgN/A
11:20 AM63 °FBroken clouds.15 mph73%29.95 "HgN/A
10:50 AM64 °FBroken clouds.13 mph73%29.95 "HgN/A
10:20 AM63 °FPartly sunny.9 mph83%29.95 "HgN/A
9:50 AM59 °FPartly sunny.8 mph94%29.95 "HgN/A
9:20 AM59 °FBroken clouds.9 mph88%29.95 "HgN/A
8:50 AM59 °FBroken clouds.9 mph100%29.95 "Hg4 mi
8:20 AM59 °FFog.10 mph100%29.95 "Hg1 mi
7:50 AM59 °FFog.9 mph100%29.95 "Hg1 mi
Weather by CustomWeather, © 2016

See weather overviewHow to use our weather pages